Home   Weather   Bremen   Past weeks

Flag for Germany Past Weather in Bremen, Bremen, Germany — Yesterday and Last 2 Weeks

50 °F

Scattered clouds.

Feels Like: 48 °F
Forecast: 34 / 49 °F
Wind: 5 mph from Northeast

Location: Bremen Airport

Current Time: Oct 25, 2016 at 2:05:07 PM

Latest Report: Oct 25, 2016 at 1:20 PM

Visibility: N/A

Pressure: 30.21 "Hg

Humidity: 76%

Dew Point: 43 °F

Location of BremenLocation

Past Weather in Bremen — Graph


Bremen Temperature Yesterday

Maximum temperature yesterday: 46 °F (at 1:20 PM)
Minimum temperature yesterday: 36 °F (at 2:20 AM)
Average temperature yesterday: 43 °F

High & Low Weather Summary for the Past Weeks

High63 °F (Oct 16, 3:50 PM)100% (Oct 11, 3:20 AM)30.27 "Hg (Oct 11, 3:20 AM)
Low36 °F (Oct 24, 2:20 AM)54% (Oct 10, 2:20 PM)29.74 "Hg (Oct 15, 3:50 AM)
Average48 °F89%30.04 "Hg
* Reported Oct 10 12:20 PM — Oct 25 12:50 PM, Bremen, Weather by CustomWeather, © 2016

Note: Actual official high and low records may vary slightly from our data, if they occured in-between our weather recording intervals... More about our weather records


Bremen Weather History for the Previous 24 Hours

Scroll right to see more
Time TempWeatherWind HumidityBarometerVisibility
12:50 PM
Tue, Oct 25
50 °FScattered clouds.7 mph82%30.21 "HgN/A
12:20 PM48 °FScattered clouds.7 mph87%30.21 "Hg5 mi
11:50 AM48 °FScattered clouds.7 mph87%30.21 "Hg4 mi
11:20 AM46 °FFog.5 mph87%30.21 "Hg3 mi
10:50 AM46 °FFog.6 mph93%30.18 "Hg3 mi
10:20 AM46 °FFog.6 mph87%30.18 "Hg2 mi
9:50 AM45 °FFog.5 mph93%30.18 "Hg2 mi
9:20 AM45 °FFog.6 mph93%30.15 "Hg2 mi
8:50 AM45 °FFog.6 mph93%30.15 "Hg2 mi
8:20 AM45 °FFog.5 mph93%30.12 "Hg2 mi
7:50 AM45 °FFog.6 mph93%30.09 "Hg2 mi
7:20 AM45 °FFog.6 mph93%30.09 "Hg2 mi
6:50 AM45 °FFog.7 mph93%30.09 "Hg2 mi
6:20 AM45 °FLight rain. Passing clouds.7 mph93%30.09 "Hg2 mi
5:50 AM45 °FLight rain. Passing clouds.7 mph93%30.09 "Hg2 mi
5:20 AM45 °FPartly cloudy.7 mph93%30.07 "Hg3 mi
4:50 AM45 °FPartly cloudy.6 mph93%30.07 "Hg3 mi
4:20 AM45 °FPartly cloudy.7 mph93%30.07 "Hg3 mi
3:50 AM45 °FPassing clouds.6 mph93%30.07 "Hg4 mi
3:20 AM45 °FPassing clouds.7 mph93%30.04 "Hg4 mi
2:50 AM45 °FPartly cloudy.8 mph93%30.04 "Hg4 mi
2:20 AM45 °FPartly cloudy.9 mph93%30.04 "Hg4 mi
1:50 AM45 °FPassing clouds.8 mph93%30.04 "Hg4 mi
1:20 AM45 °FLight rain. Passing clouds.9 mph93%30.07 "Hg4 mi
12:50 AM45 °FLight rain. Passing clouds.9 mph93%30.04 "Hg4 mi
12:20 AM45 °FPassing clouds.10 mph93%30.01 "Hg4 mi
11:50 PM
Mon, Oct 24
45 °FPassing clouds.8 mph93%30.04 "Hg4 mi
11:20 PM45 °FPassing clouds.9 mph93%30.04 "Hg4 mi
10:50 PM45 °FLight rain. Passing clouds.9 mph93%30.04 "Hg4 mi
10:20 PM45 °FLight rain. Passing clouds.8 mph93%30.04 "Hg4 mi
9:50 PM45 °FLight rain. Passing clouds.8 mph93%30.04 "Hg6 mi
9:20 PM45 °FPassing clouds.9 mph87%30.04 "Hg6 mi
8:50 PM45 °FPassing clouds.9 mph87%30.01 "Hg6 mi
8:20 PM45 °FPassing clouds.10 mph87%30.01 "Hg6 mi
7:50 PM45 °FPassing clouds.12 mph87%30.04 "Hg5 mi
7:20 PM45 °FPassing clouds.8 mph87%30.01 "Hg4 mi
6:50 PM45 °FMostly cloudy.10 mph87%30.01 "Hg4 mi
6:20 PM46 °FMostly cloudy.12 mph82%30.01 "Hg4 mi
5:50 PM46 °FOvercast.12 mph87%30.01 "Hg4 mi
5:20 PM46 °FOvercast.10 mph87%30.01 "Hg4 mi
4:50 PM46 °FOvercast.12 mph87%30.01 "Hg4 mi
4:20 PM46 °FPartly sunny.12 mph87%30.01 "Hg4 mi
3:50 PM46 °FPartly sunny.12 mph87%30.01 "Hg5 mi
3:20 PM46 °FBroken clouds.12 mph87%30.01 "Hg5 mi
2:50 PM46 °FBroken clouds.12 mph87%29.98 "Hg6 mi
2:20 PM46 °FBroken clouds.10 mph87%29.98 "Hg5 mi
Weather by CustomWeather, © 2016

See weather overviewHow to use our weather pages